Location: Cluj-Napoca
(46.7712°N, 23.6236°E)
Time: 05:15:47
(UTC+03:00)

ISS - Pass Details

Date: 29 March 2020
Orbit: 417 x 423 km, 51.6° (Epoch: 29 March)

Event Time Altitude Azimuth Distance (km) Brightness Sun altitude
Rises 21:08:11 0° 291° (WNW) 2,361 2.1 -13.6°
Reaches altitude 10° 21:10:22 10° 300° (WNW) 1,497 0.5 -14.0°
Maximum altitude 21:13:33 39° 11° (N) 643 -2.8 -14.5°
Enters shadow 21:15:13 22° 67° (ENE) 958 -2.3 -14.8°
